Вернуться в каталог

ONEWEB-0172

АктивенСвязьPO
NORAD 48071·PAYLOAD·🇬🇧 United Kingdom

Запущен Mar 25, 2021 с Vostochny Cosmodrome

Loading…

Ближайшие Пролёты (ближайшие 24 часа)

TLE

СвежийSource: CelesTrak SupGP

Эпоха: Sep 15, 2026, 04:46 UTC

1 48071C 21025AF  26258.19912454 -.00002052  00000+0 -56263-2 0  2580
2 48071  87.8924 302.3181 0001793  92.2571 300.3618 13.13474682    15

Отслеживайте ONEWEB-0172 в реальном времени с AllMySat

Download on the App Store